Location: Munkebjergskolens Observatorium
(55.3864°N, 10.3987°E)
Time: 09:11:39
(UTC+02:00)

JY1SAT - Pass Details

Date: 10 April 2023
Orbit: 555 x 574 km, 97.6° (Epoch: 03 June)

Event Time Altitude Azimuth Distance (km) Brightness Sun altitude
Exits shadow 23:40:11 13° 241° (WSW) 1,654 ? -23.2°
Maximum altitude 23:41:59 17° 272° (W) 1,466 ? -23.3°
Drops below altitude 10° 23:44:44 10° 314° (NW) 1,886 ? -23.5°
Sets 23:47:32 0° 335° (NNW) 2,795 ? -23.7°
